Location: fuzhou
(26.1169°N, 119.3250°E)
Time: 06:02:47
(UTC+08:00)

ISS - Visible Passes

Search period start: 26 April 2018 00:00
Search period end: 06 May 2018 00:00
Orbit: 403 x 406 km, 51.6° (Epoch: 26 April)

Date Brightness Start Highest point End Pass type
(mag) Time Alt. Az. Time Alt. Az. Time Alt. Az.
28 Apr -2.1 04:31:17 10° S 04:34:09 28° SE 04:37:00 10° ENE visible
29 Apr -1.1 03:41:25 12° SE 03:42:01 12° SE 03:43:26 10° E visible
30 Apr -3.9 04:24:17 27° SW 04:25:53 77° NW 04:29:09 10° NE visible
01 May -2.3 03:34:22 33° E 03:34:22 33° E 03:36:43 10° ENE visible
02 May -2.3 04:17:00 22° WNW 04:17:45 24° NW 04:20:27 10° NNE visible
03 May -1.9 03:26:52 27° NNE 03:26:52 27° NNE 03:28:33 10° NNE visible
05 May -0.9 03:18:58 13° N 03:18:58 13° N 03:19:34 10° N visible
